Change the Weather History Date:

Sunday, July 6, 2014

  Actual Average Record
Temperature  
Mean Temperature 70 °F -  
Max Temperature 84 °F 80 °F 100 °F (2010)
Min Temperature 57 °F 58 °F 46 °F (2000)
Cooling Degree Days 6    
Growing Degree Days 20 (Base 50)    
Moisture  
Dew Point 53 °F    
Average Humidity 49    
Maximum Humidity 77    
Minimum Humidity 31    
Precipitation  
Precipitation 0.00 in - - ()
Sea Level Pressure  
Sea Level Pressure 29.95 in    
Wind  
Wind Speed 10 mph (SW)    
Max Wind Speed 17 mph    
Max Gust Speed 28 mph    
Visibility 10 miles    
Events      
Averages and records for this station are not official NWS values.
T = Trace of Precipitation, MM = Missing Value Source: NWS Daily Summary

Daily Weather History Graph

Daily Weather History Graph

Search for Another Location

Airport or City:

Trip Planner

Search our weather history database for the weather conditions in past years. The results will help you decide how hot, cold, wet, or windy it might be!

Date:

Astronomy

Jul. 06, 2014 Rise Set
Actual Time 5:15 AM EDT 8:23 PM EDT
Civil Twilight 4:40 AM EDT 8:57 PM EDT
Nautical Twilight 3:57 AM EDT 9:41 PM EDT
Astronomical Twilight 3:04 AM EDT 10:33 PM EDT
Moon 2:16 PM EDT (7/6) 12:36 AM EDT (7/6)
Length of Visible Light 16h 16m
Length of Day
15h 08m
Waxing Gibbous, 62% of the Moon is Illuminated
Jul 6
Waxing Gibbous
Jul 12
Full
Jul 18
Last Quarter
Jul 26
New
Aug 3
First Quarter

Hourly Weather History & Observations

Time (EDT) Temp. Heat Index Dew Point Humidity Pressure Visibility Wind Dir Wind Speed Gust Speed Precip Events Conditions
12:53 AM 68.0 °F - 48.0 °F 49% 30.01 in 10.0 mi WSW 8.1 mph - N/A   Clear
1:53 AM 66.9 °F - 46.0 °F 47% 30.00 in 10.0 mi West 11.5 mph - N/A   Clear
2:53 AM 66.0 °F - 46.0 °F 48% 30.00 in 10.0 mi WSW 8.1 mph - N/A   Clear
3:53 AM 64.0 °F - 48.0 °F 56% 29.99 in 10.0 mi WSW 4.6 mph - N/A   Clear
4:53 AM 57.0 °F - 50.0 °F 77% 29.99 in 10.0 mi WSW 4.6 mph - N/A   Clear
5:53 AM 61.0 °F - 51.1 °F 70% 30.01 in 10.0 mi WSW 4.6 mph - N/A   Clear
6:53 AM 66.0 °F - 52.0 °F 60% 30.01 in 10.0 mi WSW 11.5 mph - N/A   Clear
7:53 AM 70.0 °F - 53.1 °F 55% 30.01 in 10.0 mi WSW 12.7 mph - N/A   Clear
8:53 AM 73.0 °F - 53.1 °F 49% 30.01 in 10.0 mi WSW 12.7 mph - N/A   Clear
9:53 AM 75.9 °F - 54.0 °F 46% 30.00 in 10.0 mi SW 10.4 mph - N/A   Clear
10:53 AM 79.0 °F - 54.0 °F 42% 29.99 in 10.0 mi WSW 13.8 mph 19.6 mph N/A   Clear
11:53 AM 80.1 °F - 51.1 °F 36% 29.96 in 10.0 mi West 11.5 mph 21.9 mph N/A   Clear
12:53 PM 82.0 °F - 48.9 °F 31% 29.95 in 10.0 mi WSW 15.0 mph 21.9 mph N/A   Clear
1:53 PM 82.9 °F - 52.0 °F 34% 29.93 in 10.0 mi SW 16.1 mph 23.0 mph N/A   Clear
2:53 PM 84.0 °F - 51.1 °F 32% 29.91 in 10.0 mi West 12.7 mph 19.6 mph N/A   Clear
3:53 PM 84.0 °F - 52.0 °F 33% 29.90 in 10.0 mi WSW 12.7 mph 27.6 mph N/A   Clear
4:53 PM 84.0 °F - 51.1 °F 32% 29.89 in 10.0 mi WSW 12.7 mph 26.5 mph N/A   Clear
5:53 PM 82.9 °F - 51.1 °F 33% 29.88 in 10.0 mi SW 17.3 mph 25.3 mph N/A   Clear
6:53 PM 81.0 °F 80.8 °F 55.9 °F 42% 29.87 in 10.0 mi SSW 13.8 mph 23.0 mph N/A   Clear
7:53 PM 79.0 °F - 55.9 °F 45% 29.88 in 10.0 mi SW 15.0 mph 21.9 mph N/A   Clear
8:53 PM 75.0 °F - 57.9 °F 55% 29.89 in 10.0 mi SSW 10.4 mph - N/A   Clear
9:53 PM 73.0 °F - 59.0 °F 61% 29.91 in 10.0 mi SSW 8.1 mph - N/A   Clear
10:53 PM 69.1 °F - 59.0 °F 70% 29.90 in 10.0 mi South 5.8 mph - N/A   Clear
11:53 PM 69.1 °F - 61.0 °F 75% 29.90 in 10.0 mi South 6.9 mph - N/A   Clear